CW1492 Weather Reports


Display with metric or nautical units.
time (UTC)temp
F
wind
direction
speed
MPH
gust
MPH
rain 1hr
in
rain 24hr
in
rain mn
in
humidity
%
barometer
mb
20190524210401 65 0.0 0.0 0.00 0.00 0.01 1015.0
20190524210344 64 257 6.0 16.0 0.00 0.33 0.01 54 1016.6
20190524204909 65 0.0 0.0 0.00 0.00 0.01 1014.6
20190524204826 65 197 5.0 18.0 0.00 0.33 0.01 54 1016.5
20190524203350 65 272 5.0 11.0 0.00 0.33 0.01 53 1016.1
20190524203333 0 0.0 0.0 0.00 0.00 0.01 1014.4
20190524201939 0 0.0 0.0 0.00 0.00 0.01 1014.0
20190524201844 65 257 5.0 14.0 0.00 0.33 0.01 52 1015.8
20190524200354 66 0.0 0.0 0.00 0.00 0.01 57 1013.5
20190524194841 66 0.0 0.0 0.00 0.00 0.01 57 1013.5
20190524194824 66 243 8.0 19.0 0.00 0.34 0.01 53 1015.1
20190524193341 66 275 8.0 20.0 0.00 0.34 0.01 50 1015.0
20190524193338 66 27 2.0 0.0 0.00 0.00 0.01 54 1013.2
20190524191921 67 0.0 0.0 0.00 0.00 0.01 54 1013.2
20190524191831 67 265 8.0 20.0 0.00 0.34 0.01 56 1014.8
20190524190412 66 285 2.0 0.0 0.00 0.00 0.01 58 1012.8
20190524190338 65 285 6.0 20.0 0.00 0.34 0.01 58 1014.6
20190524184846 67 0.0 0.0 0.00 0.00 0.01 58 1012.5
20190524184831 66 223 5.0 15.0 0.00 0.34 0.01 57 1014.3
20190524183412 66 343 2.0 0.0 0.00 0.00 0.01 58 1012.0
20190524183327 66 247 8.0 19.0 0.00 0.34 0.01 60 1013.9
20190524181846 66 210 1.0 0.0 0.00 0.00 0.01 58 1011.9
20190524181838 65 228 6.0 14.0 0.00 0.34 0.01 66 1013.4
20190524180339 66 330 2.0 0.0 0.00 0.00 0.01 58 1011.7
20190524180327 64 318 4.0 15.0 0.00 0.34 0.01 68 1013.3
20190524174838 65 241 6.0 13.0 0.00 0.34 0.01 66 1013.2
20190524174835 67 0.0 0.0 0.00 0.00 0.01 56 1011.4
20190524173355 67 289 1.0 0.0 0.00 0.00 0.01 56 1011.2
20190524173331 65 169 4.0 17.0 0.00 0.34 0.01 67 1013.0
20190524171838 68 313 2.0 0.0 0.00 0.00 0.01 54 1011.0
20190524171825 65 318 5.0 20.0 0.00 0.34 0.01 67 1012.8
20190524170337 67 0.0 0.0 0.00 0.00 0.01 57 1010.4
20190524170334 66 249 6.0 16.0 0.00 0.34 0.01 66 1012.3
20190524164854 67 0.0 0.0 0.00 0.00 0.01 1010.3
20190524164824 65 293 6.0 12.0 0.00 0.34 0.01 68 1012.1
20190524163407 68 0.0 0.0 0.00 0.00 0.01 1009.9
20190524163335 64 288 9.0 16.0 0.00 0.34 0.01 67 1012.0
20190524161832 67 21 3.0 0.0 0.00 0.00 0.01 1009.6
20190524161826 65 208 6.0 18.0 0.00 0.34 0.01 68 1011.5
20190524160345 0 0.0 0.0 0.00 0.00 0.01 1009.3
20190524160334 65 100 8.0 28.0 0.00 0.34 0.01 72 1011.3
20190524154834 0 0.0 0.0 0.00 0.00 0.01 1009.3
20190524154827 64 267 9.0 19.0 0.00 0.34 0.01 67 1011.2
20190524153339 65 219 7.0 18.0 0.00 0.34 0.01 70 1011.0
20190524153331 68 342 2.0 0.0 0.00 0.00 0.01 56 1009.1
20190524151848 67 340 3.0 0.0 0.00 0.00 0.01 58 1008.6
20190524151830 64 299 9.0 21.0 0.00 0.34 0.01 70 1010.7
20190524150401 68 0.0 0.0 0.00 0.00 0.01 62 1008.8
20190524150343 63 288 7.0 27.0 0.00 0.34 0.01 69 1010.9
20190524144853 67 0.0 0.0 0.00 0.00 0.01 62 1008.8
20190524144828 63 308 8.0 27.0 0.00 0.34 0.01 70 1010.8
20190524143347 63 178 13.0 29.0 0.00 0.34 0.01 71 1010.7
20190524143336 66 0.0 0.0 0.00 0.00 0.01 62 1008.6
20190524141858 62 128 8.0 18.0 0.00 0.34 0.01 76 1010.4
20190524141847 66 0.0 0.0 0.00 0.00 0.01 98 1008.3
20190524140401 65 336 2.0 0.0 0.00 0.00 0.01 98 1007.9
20190524140353 61 163 7.0 23.0 0.00 0.34 0.01 76 1010.0
20190524134905 61 266 7.0 18.0 0.00 0.34 0.01 80 1009.9
20190524134833 63 0.0 0.0 0.00 0.00 0.01 98 1007.8
20190524133402 62 0.0 0.0 0.00 0.00 0.01 98 1007.6
20190524131910 60 325 2.0 0.0 0.00 0.00 0.01 98 1007.6
20190524131831 59 267 4.0 12.0 0.00 0.34 0.01 86 1009.5
20190524130341 57 0.0 0.0 0.00 0.00 0.01 98 1007.2
20190524130333 59 164 7.0 11.0 0.00 0.34 0.01 83 1009.0
20190524124842 57 0.0 0.0 0.00 0.00 0.01 98 1007.0
20190524124825 59 181 4.0 13.0 0.00 0.34 0.01 85 1008.6
20190524123339 58 4 2.0 8.0 0.00 0.34 0.01 87 1008.0
20190524123335 56 295 2.0 0.0 0.00 0.00 0.01 98 1006.4
20190524121832 56 337 2.0 0.0 0.00 0.00 0.01 98 1006.1
20190524121830 58 218 4.0 13.0 0.00 0.34 0.01 88 1007.7
20190524120401 56 323 3.0 0.0 0.00 0.00 0.01 98 1006.0
20190524120338 57 135 2.0 6.0 0.00 0.34 0.01 91 1007.5
20190524114858 56 285 2.0 0.0 0.00 0.00 0.01 98 1005.6
20190524114831 56 218 4.0 9.0 0.00 0.34 0.01 90 1007.6
20190524113343 55 0.0 0.0 0.00 0.00 0.01 98 1005.5
20190524113327 57 178 1.0 3.0 0.00 0.34 0.01 90 1007.3
20190524111904 54 0.0 0.0 0.00 0.00 0.01 98 1005.5
20190524111835 57 258 1.0 7.0 0.00 0.34 0.01 87 1007.3
20190524110346 57 153 1.0 6.0 0.00 0.34 0.01 88 1006.8
20190524110338 54 304 1.0 0.0 0.00 0.00 0.01 98 1005.4
20190524104913 53 272 1.0 0.0 0.00 0.00 0.01 98 1005.0
20190524104837 57 210 2.0 10.0 0.00 0.34 0.01 88 1006.5
20190524103403 53 294 0.0 0.0 0.00 0.00 0.01 98 1004.9
20190524103351 56 193 1.0 10.0 0.00 0.34 0.01 89 1006.4
20190524101857 51 0.0 0.0 0.00 0.00 0.00 98 1004.9
20190524101840 56 167 1.0 6.0 0.00 0.34 0.01 89 1006.3
20190524100347 51 288 0.0 0.0 0.00 0.00 0.00 97 1004.7
20190524100330 55 191 3.0 8.0 0.00 0.34 0.01 89 1006.2
20190524094851 56 220 1.0 3.0 0.00 0.34 0.01 87 1006.2
20190524094832 51 0.0 0.0 0.00 0.00 0.00 97 1004.7
20190524093357 51 0.0 0.0 0.00 0.00 0.00 97 1004.5
20190524093348 55 275 1.0 9.0 0.00 0.34 0.01 90 1005.9
20190524091909 51 0.0 0.0 0.00 0.00 0.00 97 1004.3
20190524091829 55 112 1.0 4.0 0.00 0.34 0.01 91 1005.8
20190524090347 54 33 2.0 5.0 0.00 0.34 0.01 92 1005.8
20190524090334 51 0.0 0.0 0.00 0.00 0.00 97 1004.1
20190524084848 51 0.0 0.0 0.00 0.00 0.00 97 1004.3
20190524084830 55 2 2.0 6.0 0.00 0.34 0.01 91 1005.7
20190524083351 55 109 5.0 9.0 0.00 0.34 0.01 90 1005.6
20190524083341 52 282 0.0 0.0 0.00 0.00 0.00 97 1004.2
20190524081853 51 274 0.0 0.0 0.00 0.00 0.00 97 1004.4
20190524081838 55 83 2.0 3.0 0.00 0.34 0.01 90 1005.6
20190524080348 52 282 0.0 0.0 0.00 0.00 0.00 97 1004.3
20190524080327 54 58 2.0 3.0 0.00 0.34 0.01 93 1005.7
20190524074907 56 222 1.0 6.0 0.00 0.34 0.01 91 1005.7
20190524074902 52 284 1.0 0.0 0.00 0.00 0.00 97 1004.4
20190524073404 52 260 1.0 0.0 0.00 0.00 0.00 97 1004.3
20190524073401 56 29 2.0 6.0 0.00 0.34 0.01 89 1005.8
20190524071919 52 260 1.0 0.0 0.00 0.00 0.00 97 1004.4
20190524071853 56 33 3.0 6.0 0.00 0.34 0.01 90 1005.7
20190524070349 57 26 3.0 5.0 0.00 0.34 0.01 89 1005.8
20190524070339 53 277 0.0 0.0 0.00 0.00 0.00 97 1004.4
20190524064849 53 277 0.0 0.0 0.00 0.00 0.00 97 1004.6
20190524064835 56 43 2.0 3.0 0.00 0.34 0.01 91 1006.0
20190524063352 53 356 0.0 0.0 0.00 0.00 0.00 96 1004.8
20190524063329 56 36 1.0 3.0 0.00 0.34 0.01 94 1006.1
20190524061850 53 356 0.0 0.0 0.00 0.00 0.00 96 1004.9
20190524061841 55 37 2.0 6.0 0.00 0.34 0.01 95 1006.2
20190524060408 54 0.0 0.0 0.00 0.00 0.00 96 1005.1
20190524060348 54 15 1.0 3.0 0.01 0.34 0.01 94 1006.4
20190524054908 55 16 1.0 4.0 0.01 0.34 0.01 95 1006.5
20190524054830 54 0.0 0.0 0.00 0.00 0.00 96 1005.3
20190524053408 54 61 0.0 0.0 0.00 0.00 0.00 96 1005.3
20190524053342 55 24 2.0 4.0 0.01 0.34 0.01 95 1006.6
20190524051901 54 61 0.0 0.0 0.00 0.00 0.00 96 1005.4
20190524051852 55 35 0.0 2.0 0.01 0.34 0.01 95 1006.8
20190524050348 55 0.0 0.0 0.00 0.00 0.00 96 1005.9
20190524050334 55 35 1.0 3.0 0.00 0.33 0.00 95 1007.1
20190524044836 55 0.0 0.0 0.00 0.00 0.00 96 1005.9
20190524044828 55 343 2.0 3.0 0.00 0.33 0.00 95 1007.2
20190524043343 55 343 0.0 4.0 0.00 0.33 0.00 94 1007.4
20190524043340 56 0.0 0.0 0.00 0.00 0.00 96 1006.1
20190524041852 56 0.0 0.0 0.00 0.00 0.00 96 1006.2
20190524041826 56 352 1.0 6.0 0.00 0.33 0.00 94 1007.5
20190524040348 57 0.0 0.0 0.00 0.00 0.00 94 1006.2
20190524040334 56 109 1.0 6.0 0.00 0.33 0.00 94 1007.6
20190524034845 56 39 0.0 8.0 0.00 0.33 0.33 93 1007.7
20190524034841 57 89 1.0 0.0 0.00 0.00 0.19 94 1006.2
20190524033348 56 15 2.0 4.0 0.02 0.33 0.33 92 1007.8
20190524033330 58 0.0 0.0 0.00 0.00 0.19 94 1006.3
20190524031835 58 0.0 0.0 0.00 0.00 0.19 94 1006.6
20190524031831 57 18 2.0 4.0 0.30 0.33 0.33 92 1007.9
20190524030349 57 23 3.0 5.0 0.31 0.33 0.33 91 1008.4
20190524030335 58 103 0.0 0.0 0.00 0.00 0.19 93 1007.0
20190524024840 57 253 2.0 4.0 0.32 0.33 0.33 88 1009.3
20190524024832 58 80 2.0 0.0 0.00 0.00 0.19 93 1007.5
20190524023342 59 0.0 0.0 0.00 0.00 0.02 90 1007.1
20190524023335 58 86 3.0 10.0 0.30 0.31 0.31 83 1008.6
20190524021857 60 313 1.0 0.0 0.00 0.00 0.02 86 1007.2
20190524021847 58 69 1.0 9.0 0.02 0.03 0.03 77 1008.9
20190524020416 60 65 2.0 0.0 0.00 0.00 0.01 86 1007.2
20190524020336 59 37 1.0 8.0 0.00 0.01 0.01 76 1008.7
20190524014830 59 40 2.0 5.0 0.00 0.01 0.01 74 1008.9
20190524013349 59 131 3.0 0.0 0.00 0.00 0.01 86 1007.3
20190524013342 59 337 2.0 4.0 0.00 0.01 0.01 74 1009.1
20190524011832 59 121 5.0 0.0 0.00 0.00 0.01 86 1007.2
20190524011826 59 130 3.0 8.0 0.00 0.01 0.01 73 1008.7
20190524010356 59 133 3.0 9.0 0.00 0.01 0.01 72 1009.3
20190524010338 60 152 6.0 0.0 0.00 0.00 0.01 81 1007.6
20190524004855 60 73 5.0 0.0 0.00 0.00 0.01 81 1008.0
20190524004846 59 52 4.0 9.0 0.00 0.01 0.01 72 1009.4
20190524003342 60 0.0 0.0 0.00 0.00 0.01 81 1008.5
20190524003340 59 43 5.0 9.0 0.00 0.01 0.01 71 1009.8
20190524001853 60 37 4.0 9.0 0.00 0.01 0.01 71 1010.6
20190524001828 60 0.0 0.0 0.00 0.00 0.01 81 1009.0
20190524000420 60 0.0 0.0 0.00 0.00 0.01 81 1009.4
20190524000341 60 89 3.0 9.0 0.00 0.01 0.01 69 1011.2
20190523234900 61 154 2.0 0.0 0.00 0.00 0.01 79 1009.7
20190523234853 61 60 4.0 9.0 0.00 0.01 0.01 68 1011.3
20190523233402 61 0.0 0.0 0.00 0.00 0.01 78 1009.7
20190523233326 61 18 4.0 10.0 0.00 0.01 0.01 68 1011.3
20190523231901 61 24 3.0 9.0 0.00 0.01 0.01 67 1011.8
20190523231834 61 45 2.0 0.0 0.00 0.00 0.01 77 1010.2
20190523230346 61 93 1.0 0.0 0.00 0.00 0.01 78 1010.7
20190523230331 62 44 5.0 10.0 0.00 0.01 0.01 65 1012.0
20190523224902 62 69 2.0 9.0 0.00 0.01 0.01 66 1012.6
20190523224856 62 0.0 0.0 0.00 0.00 0.01 82 1010.8
20190523223347 61 0.0 0.0 0.00 0.00 0.01 82 1010.8
20190523223336 62 57 2.0 9.0 0.00 0.01 0.01 64 1012.5
20190523221830 62 39 2.0 7.0 0.00 0.01 0.01 65 1012.7
20190523220423 62 0.0 0.0 0.00 0.00 0.01 82 1010.9
20190523220341 62 35 4.0 15.0 0.00 0.01 0.01 65 1012.7
20190523214855 62 66 4.0 11.0 0.00 0.01 0.01 65 1012.7
20190523214840 62 0.0 0.0 0.00 0.00 0.01 82 1011.2
20190523213353 62 114 4.0 11.0 0.00 0.01 0.01 64 1013.6
20190523213350 62 0.0 0.0 0.00 0.00 0.01 82 1012.0
20190523211843 62 64 4.0 8.0 0.00 0.01 0.01 64 1014.2
20190523211834 62 141 3.0 0.0 0.00 0.00 0.01 82 1012.4